Time,TemperatureF,DewpointF,PressureIn,WindDirection,WindDirectionDegrees,WindSpeedMPH,WindSpeedGustMPH,Humidity,HourlyPrecipIn,Conditions,Clouds,dailyrainin,SoftwareType,DateUTC
2013-12-13 00:01:00,34.9,23.2,30.24,North,353,0.0,0.0,62,0.00,,SKC,0.00,VWS V14.01,2013-12-13 06:01:00,
2013-12-13 00:06:00,34.9,23.2,30.24,North,8,0.0,0.0,62,0.00,,SKC,0.00,VWS V14.01,2013-12-13 06:06:00,
2013-12-13 00:11:00,34.9,22.4,30.24,North,5,0.0,0.0,60,0.00,,SKC,0.00,VWS V14.01,2013-12-13 06:11:00,
2013-12-13 00:16:00,34.9,22.4,30.24,North,5,0.0,2.2,60,0.00,,SKC,0.00,VWS V14.01,2013-12-13 06:16:00,
2013-12-13 00:21:00,34.9,22.4,30.24,North,11,2.2,3.1,60,0.00,,SKC,0.00,VWS V14.01,2013-12-13 06:21:00,
2013-12-13 00:26:00,34.9,20.8,30.24,North,5,0.0,3.1,56,0.00,,SKC,0.00,VWS V14.01,2013-12-13 06:26:00,
2013-12-13 00:31:00,34.9,19.9,30.24,NNE,32,0.0,2.2,54,0.00,,SKC,0.00,VWS V14.01,2013-12-13 06:31:00,
2013-12-13 00:36:00,34.9,19.9,30.24,North,5,0.0,0.0,54,0.00,,SKC,0.00,VWS V14.01,2013-12-13 06:36:00,
2013-12-13 00:41:00,34.9,19.9,30.24,NE,41,2.7,2.7,54,0.00,,SKC,0.00,VWS V14.01,2013-12-13 06:41:00,
2013-12-13 00:46:00,34.7,19.8,30.21,NE,36,2.7,2.7,54,0.00,,SKC,0.00,VWS V14.01,2013-12-13 06:46:00,
2013-12-13 00:51:00,34.9,19.1,30.21,North,357,0.0,2.7,52,0.00,,SKC,0.00,VWS V14.01,2013-12-13 06:51:00,
2013-12-13 00:56:00,35.1,18.3,30.21,NNE,24,3.6,3.6,50,0.00,,SKC,0.00,VWS V14.01,2013-12-13 06:56:00,
2013-12-13 01:01:00,35.2,16.5,30.21,NE,49,2.7,2.7,46,0.00,,SKC,0.00,VWS V14.01,2013-12-13 07:01:00,
2013-12-13 01:05:00,35.2,15.5,30.21,NNE,26,2.7,3.6,44,0.00,,SKC,0.00,VWS V14.01,2013-12-13 07:05:00,
2013-12-13 01:10:00,35.2,15.5,30.21,NNE,21,3.1,3.1,44,0.00,,SKC,0.00,VWS V14.01,2013-12-13 07:10:00,
2013-12-13 01:15:00,35.2,15.5,30.21,NE,47,2.2,2.2,44,0.00,,SKC,0.00,VWS V14.01,2013-12-13 07:15:00,
2013-12-13 01:20:00,35.4,15.7,30.21,NE,36,0.0,0.0,44,0.00,,SKC,0.00,VWS V14.01,2013-12-13 07:20:00,
2013-12-13 01:25:00,35.2,15.5,30.21,NNE,23,0.0,2.2,44,0.00,,SKC,0.00,VWS V14.01,2013-12-13 07:25:00,
2013-12-13 01:30:00,34.9,15.2,30.21,NE,35,0.0,0.0,44,0.00,,SKC,0.00,VWS V14.01,2013-12-13 07:30:00,
2013-12-13 01:35:00,34.7,16.0,30.21,NNE,17,0.0,0.0,46,0.00,,SKC,0.00,VWS V14.01,2013-12-13 07:35:00,
2013-12-13 01:40:00,34.5,16.9,30.21,NE,50,0.0,0.0,48,0.00,,SKC,0.00,VWS V14.01,2013-12-13 07:40:00,
2013-12-13 01:45:00,34.5,16.9,30.21,North,357,0.0,0.0,48,0.00,,SKC,0.00,VWS V14.01,2013-12-13 07:45:00,
2013-12-13 01:50:00,34.5,17.8,30.21,North,357,0.0,0.0,50,0.00,,SKC,0.00,VWS V14.01,2013-12-13 07:50:00,
2013-12-13 01:55:00,34.3,18.5,30.21,North,357,0.0,0.0,52,0.00,,SKC,0.00,VWS V14.01,2013-12-13 07:55:00,
2013-12-13 02:00:00,34.3,18.5,30.21,North,357,0.0,0.0,52,0.00,,SKC,0.00,VWS V14.01,2013-12-13 08:00:00,
2013-12-13 02:05:00,34.0,18.2,30.21,North,357,0.0,0.0,52,0.00,,SKC,0.00,VWS V14.01,2013-12-13 08:05:00,
2013-12-13 02:11:00,33.8,18.9,30.21,North,357,0.0,0.0,54,0.00,,SKC,0.00,VWS V14.01,2013-12-13 08:11:00,
2013-12-13 02:16:00,33.8,21.4,30.21,North,357,0.0,0.0,60,0.00,,SKC,0.00,VWS V14.01,2013-12-13 08:16:00,
2013-12-13 02:21:00,33.8,20.6,30.21,North,357,0.0,0.0,58,0.00,,SKC,0.00,VWS V14.01,2013-12-13 08:21:00,
2013-12-13 02:26:00,33.8,22.2,30.21,North,2,0.0,0.0,62,0.00,,SKC,0.00,VWS V14.01,2013-12-13 08:26:00,
2013-12-13 02:31:00,33.6,20.4,30.21,North,3,0.0,0.0,58,0.00,,SKC,0.00,VWS V14.01,2013-12-13 08:31:00,
2013-12-13 02:36:00,33.4,20.3,30.21,North,11,3.1,3.1,58,0.00,,SKC,0.00,VWS V14.01,2013-12-13 08:36:00,
2013-12-13 02:41:00,33.3,20.9,30.21,NNE,25,4.0,5.4,60,0.00,,SKC,0.00,VWS V14.01,2013-12-13 08:41:00,
2013-12-13 02:45:00,33.6,20.4,30.18,ENE,57,0.0,3.1,58,0.00,,SKC,0.00,VWS V14.01,2013-12-13 08:45:00,
2013-12-13 02:50:00,34.0,18.2,30.18,NE,48,3.1,3.1,52,0.00,,SKC,0.00,VWS V14.01,2013-12-13 08:50:00,
2013-12-13 02:55:00,34.3,17.6,30.18,ENE,62,3.1,3.1,50,0.00,,SKC,0.00,VWS V14.01,2013-12-13 08:55:00,
2013-12-13 03:00:00,34.5,16.9,30.18,NE,56,0.0,0.0,48,0.00,,SKC,0.00,VWS V14.01,2013-12-13 09:00:00,
2013-12-13 03:05:00,34.5,15.9,30.18,NNE,31,2.7,2.7,46,0.00,,SKC,0.00,VWS V14.01,2013-12-13 09:05:00,
2013-12-13 03:10:00,34.7,16.0,30.18,NNE,12,2.7,2.7,46,0.00,,SKC,0.00,VWS V14.01,2013-12-13 09:10:00,
2013-12-13 03:15:00,34.9,15.2,30.18,North,3,2.2,2.2,44,0.00,,SKC,0.00,VWS V14.01,2013-12-13 09:15:00,
2013-12-13 03:20:00,34.9,15.2,30.18,NE,36,3.1,3.6,44,0.00,,SKC,0.00,VWS V14.01,2013-12-13 09:20:00,
2013-12-13 03:25:00,34.9,16.2,30.18,North,2,0.0,0.0,46,0.00,,SKC,0.00,VWS V14.01,2013-12-13 09:25:00,
2013-12-13 03:30:00,34.7,16.0,30.18,North,2,2.2,2.2,46,0.00,,SKC,0.00,VWS V14.01,2013-12-13 09:30:00,
2013-12-13 03:35:00,34.5,16.9,30.18,North,2,0.0,0.0,48,0.00,,SKC,0.00,VWS V14.01,2013-12-13 09:35:00,
2013-12-13 03:40:00,34.3,17.6,30.18,North,2,0.0,0.0,50,0.00,,SKC,0.00,VWS V14.01,2013-12-13 09:40:00,
2013-12-13 03:45:00,34.3,17.6,30.18,North,2,0.0,0.0,50,0.00,,SKC,0.00,VWS V14.01,2013-12-13 09:45:00,
2013-12-13 03:50:00,34.3,17.6,30.18,North,2,0.0,0.0,50,0.00,,SKC,0.00,VWS V14.01,2013-12-13 09:50:00,
2013-12-13 03:55:00,34.2,17.5,30.18,North,2,0.0,0.0,50,0.00,,SKC,0.00,VWS V14.01,2013-12-13 09:55:00,
2013-12-13 04:00:00,34.0,17.3,30.18,North,2,0.0,0.0,50,0.00,,SKC,0.00,VWS V14.01,2013-12-13 10:00:00,
2013-12-13 04:06:00,33.6,17.0,30.18,North,2,0.0,0.0,50,0.00,,SKC,0.00,VWS V14.01,2013-12-13 10:06:00,
2013-12-13 04:11:00,33.6,17.9,30.18,North,2,0.0,0.0,52,0.00,,SKC,0.00,VWS V14.01,2013-12-13 10:11:00,
2013-12-13 04:16:00,33.6,18.8,30.18,North,2,0.0,0.0,54,0.00,,SKC,0.00,VWS V14.01,2013-12-13 10:16:00,
2013-12-13 04:21:00,33.8,19.8,30.18,North,2,0.0,0.0,56,0.00,,SKC,0.00,VWS V14.01,2013-12-13 10:21:00,
2013-12-13 04:26:00,33.8,18.9,30.18,North,2,0.0,0.0,54,0.00,,SKC,0.00,VWS V14.01,2013-12-13 10:26:00,
2013-12-13 04:31:00,33.6,18.8,30.18,North,2,0.0,0.0,54,0.00,,SKC,0.00,VWS V14.01,2013-12-13 10:31:00,
2013-12-13 04:36:00,33.4,18.6,30.18,North,2,0.0,0.0,54,0.00,,SKC,0.00,VWS V14.01,2013-12-13 10:36:00,
2013-12-13 04:41:00,33.6,21.2,30.18,North,2,0.0,0.0,60,0.00,,SKC,0.00,VWS V14.01,2013-12-13 10:41:00,
2013-12-13 04:46:00,34.0,22.4,30.18,North,2,0.0,0.0,62,0.00,,SKC,0.00,VWS V14.01,2013-12-13 10:46:00,
2013-12-13 04:50:00,34.0,21.6,30.18,North,2,0.0,0.0,60,0.00,,SKC,0.00,VWS V14.01,2013-12-13 10:50:00,
2013-12-13 04:55:00,34.0,22.4,30.18,North,2,0.0,0.0,62,0.00,,SKC,0.00,VWS V14.01,2013-12-13 10:55:00,
2013-12-13 05:00:00,34.2,23.3,30.18,North,2,0.0,0.0,64,0.00,,SKC,0.00,VWS V14.01,2013-12-13 11:00:00,
2013-12-13 05:05:00,34.2,22.5,30.18,North,2,3.1,3.1,62,0.00,,SKC,0.00,VWS V14.01,2013-12-13 11:05:00,
2013-12-13 05:10:00,34.0,23.1,30.18,North,2,0.0,0.0,64,0.00,,SKC,0.00,VWS V14.01,2013-12-13 11:10:00,
2013-12-13 05:15:00,34.2,22.5,30.15,North,2,0.0,0.0,62,0.00,,SKC,0.00,VWS V14.01,2013-12-13 11:15:00,
2013-12-13 05:20:00,34.0,22.4,30.15,North,2,0.0,0.0,62,0.00,,SKC,0.00,VWS V14.01,2013-12-13 11:20:00,
2013-12-13 05:25:00,34.0,23.1,30.15,North,2,0.0,0.0,64,0.00,,SKC,0.00,VWS V14.01,2013-12-13 11:25:00,
2013-12-13 05:30:00,34.0,23.1,30.18,North,2,0.0,0.0,64,0.00,,SKC,0.00,VWS V14.01,2013-12-13 11:30:00,
2013-12-13 05:35:00,34.0,23.1,30.18,North,2,0.0,0.0,64,0.00,,SKC,0.00,VWS V14.01,2013-12-13 11:35:00,
2013-12-13 05:40:00,33.8,22.2,30.18,North,2,0.0,0.0,62,0.00,,SKC,0.00,VWS V14.01,2013-12-13 11:40:00,
2013-12-13 05:45:00,34.0,23.1,30.18,North,2,0.0,0.0,64,0.00,,SKC,0.00,VWS V14.01,2013-12-13 11:45:00,
2013-12-13 05:50:00,34.0,23.1,30.18,North,2,0.0,0.0,64,0.00,,SKC,0.00,VWS V14.01,2013-12-13 11:50:00,
2013-12-13 05:55:00,34.2,23.3,30.18,North,2,0.0,0.0,64,0.00,,SKC,0.00,VWS V14.01,2013-12-13 11:55:00,
2013-12-13 06:00:00,34.2,23.3,30.18,North,2,0.0,0.0,64,0.00,,SKC,0.00,VWS V14.01,2013-12-13 12:00:00,
2013-12-13 06:05:00,34.3,23.4,30.18,North,2,0.0,0.0,64,0.00,,SKC,0.00,VWS V14.01,2013-12-13 12:05:00,
2013-12-13 06:10:00,34.3,23.4,30.18,North,2,0.0,0.0,64,0.00,,SKC,0.00,VWS V14.01,2013-12-13 12:10:00,
2013-12-13 06:15:00,34.3,22.7,30.18,North,2,0.0,0.0,62,0.00,,SKC,0.00,VWS V14.01,2013-12-13 12:15:00,
2013-12-13 06:20:00,34.3,22.7,30.18,North,2,0.0,0.0,62,0.00,,SKC,0.00,VWS V14.01,2013-12-13 12:20:00,
2013-12-13 06:24:00,34.0,22.4,30.18,North,2,0.0,0.0,62,0.00,,SKC,0.00,VWS V14.01,2013-12-13 12:24:00,
2013-12-13 06:29:00,33.8,22.2,30.18,North,2,0.0,0.0,62,0.00,,SKC,0.00,VWS V14.01,2013-12-13 12:29:00,
2013-12-13 06:34:00,34.0,23.1,30.18,North,2,0.0,0.0,64,0.00,,SKC,0.00,VWS V14.01,2013-12-13 12:34:00,
2013-12-13 06:39:00,33.8,22.9,30.18,North,2,0.0,0.0,64,0.00,,SKC,0.00,VWS V14.01,2013-12-13 12:39:00,
2013-12-13 06:44:00,34.0,23.1,30.18,North,2,0.0,0.0,64,0.00,,SKC,0.00,VWS V14.01,2013-12-13 12:44:00,
2013-12-13 06:49:00,34.3,24.2,30.18,North,2,0.0,0.0,66,0.00,,SKC,0.00,VWS V14.01,2013-12-13 12:49:00,
2013-12-13 06:54:00,34.5,23.6,30.18,North,2,0.0,0.0,64,0.00,,SKC,0.00,VWS V14.01,2013-12-13 12:54:00,
2013-12-13 06:59:00,34.7,24.5,30.18,North,2,0.0,0.0,66,0.00,,SKC,0.00,VWS V14.01,2013-12-13 12:59:00,
2013-12-13 07:03:00,34.9,24.0,30.18,North,2,0.0,0.0,64,0.00,,SKC,0.00,VWS V14.01,2013-12-13 13:03:00,
2013-12-13 07:08:00,35.2,24.3,30.18,NE,40,3.1,3.1,64,0.00,,SKC,0.00,VWS V14.01,2013-12-13 13:08:00,
2013-12-13 07:13:00,35.4,24.5,30.15,ENE,65,2.2,3.1,64,0.00,,SKC,0.00,VWS V14.01,2013-12-13 13:13:00,
2013-12-13 07:18:00,35.8,23.3,30.15,NE,54,2.7,3.6,60,0.00,,SKC,0.00,VWS V14.01,2013-12-13 13:18:00,
2013-12-13 07:23:00,35.8,19.0,30.15,NE,45,2.7,2.7,50,0.00,,SKC,0.00,VWS V14.01,2013-12-13 13:23:00,
2013-12-13 07:28:00,36.1,19.3,30.15,NNE,16,4.0,4.0,50,0.00,,SKC,0.00,VWS V14.01,2013-12-13 13:28:00,
2013-12-13 07:33:00,36.3,17.5,30.15,NNE,24,0.0,0.0,46,0.00,,SKC,0.00,VWS V14.01,2013-12-13 13:33:00,
2013-12-13 07:38:00,36.9,15.9,30.15,East,85,2.7,4.0,42,0.00,,SKC,0.00,VWS V14.01,2013-12-13 13:38:00,
2013-12-13 07:43:00,37.8,16.8,30.15,ENE,66,2.7,3.6,42,0.00,,SKC,0.00,VWS V14.01,2013-12-13 13:43:00,
2013-12-13 07:48:00,38.5,12.6,30.15,NE,51,2.2,2.2,34,0.00,,SKC,0.00,VWS V14.01,2013-12-13 13:48:00,
2013-12-13 07:53:00,39.0,13.0,30.15,ENE,73,4.0,4.9,34,0.00,,SKC,0.00,VWS V14.01,2013-12-13 13:53:00,
2013-12-13 07:58:00,39.7,9.3,30.15,NE,47,4.0,6.3,28,0.00,,SKC,0.00,VWS V14.01,2013-12-13 13:58:00,
2013-12-13 08:03:00,40.3,9.8,30.15,NNE,14,0.0,2.2,28,0.00,,SKC,0.00,VWS V14.01,2013-12-13 14:03:00,
2013-12-13 08:08:00,40.8,10.2,30.15,ENE,76,3.1,3.6,28,0.00,,SKC,0.00,VWS V14.01,2013-12-13 14:08:00,
2013-12-13 08:13:00,41.4,10.7,30.15,NE,43,3.6,3.6,28,0.00,,SKC,0.00,VWS V14.01,2013-12-13 14:13:00,
2013-12-13 08:18:00,41.7,11.0,30.15,ENE,74,3.6,3.6,28,0.00,,SKC,0.00,VWS V14.01,2013-12-13 14:18:00,
2013-12-13 08:23:00,42.1,11.3,30.15,ENE,62,0.0,3.1,28,0.00,,SKC,0.00,VWS V14.01,2013-12-13 14:23:00,
2013-12-13 08:28:00,42.4,11.7,30.15,NE,37,5.4,5.4,28,0.00,,SKC,0.00,VWS V14.01,2013-12-13 14:28:00,
2013-12-13 08:33:00,43.0,12.1,30.15,NE,44,2.7,4.0,28,0.00,,SKC,0.00,VWS V14.01,2013-12-13 14:33:00,
2013-12-13 08:38:00,43.7,12.8,30.15,NE,50,4.9,4.9,28,0.00,,SKC,0.00,VWS V14.01,2013-12-13 14:38:00,
2013-12-13 08:43:00,44.8,12.0,30.15,NE,42,3.1,4.9,26,0.00,,SKC,0.00,VWS V14.01,2013-12-13 14:43:00,
2013-12-13 08:48:00,45.9,9.2,30.15,East,81,3.6,4.9,22,0.00,,SKC,0.00,VWS V14.01,2013-12-13 14:48:00,
2013-12-13 08:53:00,46.8,7.8,30.15,NE,49,3.6,5.4,20,0.00,,SKC,0.00,VWS V14.01,2013-12-13 14:53:00,
2013-12-13 08:58:00,47.5,8.4,30.15,NE,56,5.4,6.3,20,0.00,,SKC,0.00,VWS V14.01,2013-12-13 14:58:00,
2013-12-13 09:03:00,48.0,8.9,30.15,NE,39,4.0,4.0,20,0.00,,SKC,0.00,VWS V14.01,2013-12-13 15:03:00,
2013-12-13 09:08:00,48.6,9.3,30.15,East,98,5.4,5.8,20,0.00,,SKC,0.00,VWS V14.01,2013-12-13 15:08:00,
2013-12-13 09:13:00,49.3,9.9,30.15,ENE,57,3.6,5.4,20,0.00,,SKC,0.00,VWS V14.01,2013-12-13 15:13:00,
2013-12-13 09:18:00,50.0,10.5,30.15,East,97,3.6,6.3,20,0.00,,SKC,0.00,VWS V14.01,2013-12-13 15:18:00,
2013-12-13 09:23:00,50.7,11.1,30.15,ENE,63,4.0,6.3,20,0.00,,SKC,0.00,VWS V14.01,2013-12-13 15:23:00,
2013-12-13 09:28:00,51.4,15.9,30.15,NNE,27,3.1,5.4,24,0.00,,SKC,0.00,VWS V14.01,2013-12-13 15:28:00,
2013-12-13 09:33:00,52.0,9.8,30.15,East,83,4.0,6.3,18,0.00,,SKC,0.00,VWS V14.01,2013-12-13 15:33:00,
2013-12-13 09:38:00,52.2,10.0,30.15,ENE,60,6.3,8.3,18,0.00,,SKC,0.00,VWS V14.01,2013-12-13 15:38:00,
2013-12-13 09:43:00,52.5,16.8,30.15,East,92,8.1,8.1,24,0.00,,SKC,0.00,VWS V14.01,2013-12-13 15:43:00,
2013-12-13 09:48:00,52.9,10.6,30.15,ENE,78,3.6,6.3,18,0.00,,SKC,0.00,VWS V14.01,2013-12-13 15:48:00,
2013-12-13 09:53:00,53.1,17.2,30.15,ENE,69,7.6,8.7,24,0.00,,SKC,0.00,VWS V14.01,2013-12-13 15:53:00,
2013-12-13 09:58:00,53.4,11.0,30.12,ENE,76,6.3,8.1,18,0.00,,SKC,0.00,VWS V14.01,2013-12-13 15:58:00,
2013-12-13 10:03:00,53.8,11.3,30.12,ESE,107,4.0,5.8,18,0.00,,SKC,0.00,VWS V14.01,2013-12-13 16:03:00,
2013-12-13 10:08:00,54.5,11.9,30.12,East,92,5.4,10.1,18,0.00,,SKC,0.00,VWS V14.01,2013-12-13 16:08:00,
2013-12-13 10:13:00,54.9,16.8,30.12,NE,44,5.8,7.6,22,0.00,,SKC,0.00,VWS V14.01,2013-12-13 16:13:00,
2013-12-13 10:18:00,55.0,16.9,30.12,ENE,76,5.4,5.8,22,0.00,,SKC,0.00,VWS V14.01,2013-12-13 16:18:00,
2013-12-13 10:23:00,55.4,17.2,30.12,East,90,2.7,7.6,22,0.00,,SKC,0.00,VWS V14.01,2013-12-13 16:23:00,
2013-12-13 10:28:00,55.9,17.7,30.12,ENE,68,4.0,8.1,22,0.00,,SKC,0.00,VWS V14.01,2013-12-13 16:28:00,
2013-12-13 10:33:00,55.9,17.7,30.12,ENE,74,5.8,7.6,22,0.00,,SKC,0.00,VWS V14.01,2013-12-13 16:33:00,
2013-12-13 10:38:00,55.4,17.2,30.12,ENE,71,4.0,5.8,22,0.00,,SKC,0.00,VWS V14.01,2013-12-13 16:38:00,
2013-12-13 10:43:00,55.0,16.9,30.12,ENE,67,5.4,5.4,22,0.00,,SKC,0.00,VWS V14.01,2013-12-13 16:43:00,
2013-12-13 10:48:00,55.4,17.2,30.12,East,82,4.0,5.8,22,0.00,,SKC,0.00,VWS V14.01,2013-12-13 16:48:00,
2013-12-13 10:53:00,56.1,17.8,30.12,ENE,77,7.2,7.2,22,0.00,,SKC,0.00,VWS V14.01,2013-12-13 16:53:00,
2013-12-13 10:58:00,56.7,18.3,30.12,NE,38,5.8,6.3,22,0.00,,SKC,0.00,VWS V14.01,2013-12-13 16:58:00,
2013-12-13 11:03:00,57.4,16.7,30.12,NE,38,2.7,3.6,20,0.00,,SKC,0.00,VWS V14.01,2013-12-13 17:03:00,
2013-12-13 11:08:00,58.1,17.3,30.12,NNE,29,4.5,8.1,20,0.00,,SKC,0.00,VWS V14.01,2013-12-13 17:08:00,
2013-12-13 11:13:00,58.5,17.6,30.09,East,101,5.8,6.3,20,0.00,,SKC,0.00,VWS V14.01,2013-12-13 17:13:00,
2013-12-13 11:18:00,58.6,17.7,30.09,East,89,6.3,6.3,20,0.00,,SKC,0.00,VWS V14.01,2013-12-13 17:18:00,
2013-12-13 11:23:00,58.6,17.7,30.09,ENE,62,5.8,7.6,20,0.00,,SKC,0.00,VWS V14.01,2013-12-13 17:23:00,
2013-12-13 11:28:00,59.0,18.0,30.09,ENE,77,4.9,8.1,20,0.00,,SKC,0.00,VWS V14.01,2013-12-13 17:28:00,
2013-12-13 11:33:00,59.2,18.2,30.09,ENE,64,5.8,5.8,20,0.00,,SKC,0.00,VWS V14.01,2013-12-13 17:33:00,
2013-12-13 11:38:00,59.0,18.0,30.09,ENE,60,3.6,5.4,20,0.00,,SKC,0.00,VWS V14.01,2013-12-13 17:38:00,
2013-12-13 11:43:00,59.2,18.2,30.09,East,99,7.6,7.6,20,0.00,,SKC,0.00,VWS V14.01,2013-12-13 17:43:00,
2013-12-13 11:48:00,59.9,18.8,30.09,East,84,2.7,4.0,20,0.00,,SKC,0.00,VWS V14.01,2013-12-13 17:48:00,
2013-12-13 11:53:00,60.3,19.0,30.09,East,87,5.4,6.7,20,0.00,,SKC,0.00,VWS V14.01,2013-12-13 17:53:00,
2013-12-13 11:58:00,60.3,19.0,30.06,ESE,112,5.8,8.3,20,0.00,,SKC,0.00,VWS V14.01,2013-12-13 17:58:00,
2013-12-13 12:03:00,60.3,25.3,30.06,ENE,68,8.1,8.1,26,0.00,,SKC,0.00,VWS V14.01,2013-12-13 18:03:00,
2013-12-13 12:08:00,60.1,18.9,30.06,East,83,5.8,5.8,20,0.00,,SKC,0.00,VWS V14.01,2013-12-13 18:08:00,
2013-12-13 12:13:00,59.9,25.0,30.06,ENE,65,4.9,4.9,26,0.00,,SKC,0.00,VWS V14.01,2013-12-13 18:13:00,
2013-12-13 12:18:00,59.4,27.9,30.06,East,85,5.4,5.4,30,0.00,,SKC,0.00,VWS V14.01,2013-12-13 18:18:00,
2013-12-13 12:23:00,59.2,27.8,30.06,East,94,4.9,4.9,30,0.00,,SKC,0.00,VWS V14.01,2013-12-13 18:23:00,
2013-12-13 12:27:00,58.8,27.5,30.06,ENE,77,5.4,5.4,30,0.00,,SKC,0.00,VWS V14.01,2013-12-13 18:27:00,
2013-12-13 12:32:00,58.5,28.7,30.06,ENE,67,5.8,6.3,32,0.00,,SKC,0.00,VWS V14.01,2013-12-13 18:32:00,
2013-12-13 12:37:00,58.5,30.2,30.06,East,89,3.6,3.6,34,0.00,,SKC,0.00,VWS V14.01,2013-12-13 18:37:00,
2013-12-13 12:42:00,58.5,31.6,30.06,ENE,69,4.0,4.0,36,0.00,,SKC,0.00,VWS V14.01,2013-12-13 18:42:00,
2013-12-13 12:47:00,58.5,31.6,30.06,East,89,4.9,6.3,36,0.00,,SKC,0.00,VWS V14.01,2013-12-13 18:47:00,
2013-12-13 12:52:00,58.6,30.4,30.06,NE,50,4.0,4.0,34,0.00,,SKC,0.00,VWS V14.01,2013-12-13 18:52:00,
2013-12-13 12:57:00,58.8,32.0,30.03,East,97,7.6,7.6,36,0.00,,SKC,0.00,VWS V14.01,2013-12-13 18:57:00,
2013-12-13 13:02:00,58.6,31.8,30.03,ENE,61,3.1,5.8,36,0.00,,SKC,0.00,VWS V14.01,2013-12-13 19:02:00,
2013-12-13 13:07:00,58.6,34.4,30.03,ENE,65,6.3,6.3,40,0.00,,SKC,0.00,VWS V14.01,2013-12-13 19:07:00,
2013-12-13 13:12:00,58.6,34.4,30.03,East,83,6.3,6.3,40,0.00,,SKC,0.00,VWS V14.01,2013-12-13 19:12:00,
2013-12-13 13:17:00,58.5,34.2,30.03,ENE,67,8.1,8.1,40,0.00,,SKC,0.00,VWS V14.01,2013-12-13 19:17:00,
2013-12-13 13:22:00,58.5,34.2,30.03,SSE,168,2.2,2.2,40,0.00,,SKC,0.00,VWS V14.01,2013-12-13 19:22:00,
2013-12-13 13:27:00,58.5,36.7,30.00,ENE,57,6.3,6.3,44,0.00,,SKC,0.00,VWS V14.01,2013-12-13 19:27:00,
2013-12-13 13:32:00,58.3,37.6,30.00,East,94,8.7,8.7,46,0.00,,SKC,0.00,VWS V14.01,2013-12-13 19:32:00,
2013-12-13 13:37:00,58.1,36.3,30.00,East,80,5.8,5.8,44,0.00,,SKC,0.00,VWS V14.01,2013-12-13 19:37:00,
2013-12-13 13:42:00,58.5,38.9,30.00,ENE,76,2.7,4.9,48,0.00,,SKC,0.00,VWS V14.01,2013-12-13 19:42:00,
2013-12-13 13:47:00,58.6,39.0,30.00,NE,55,2.7,3.6,48,0.00,,SKC,0.00,VWS V14.01,2013-12-13 19:47:00,
2013-12-13 13:52:00,58.8,41.2,30.00,NE,46,4.9,8.1,52,0.00,,SKC,0.00,VWS V14.01,2013-12-13 19:52:00,
2013-12-13 13:57:00,58.8,39.2,30.00,ESE,104,6.3,6.3,48,0.00,,SKC,0.00,VWS V14.01,2013-12-13 19:57:00,
2013-12-13 14:02:00,59.0,38.3,30.00,ENE,68,4.0,4.0,46,0.00,,SKC,0.00,VWS V14.01,2013-12-13 20:02:00,
2013-12-13 14:07:00,59.0,38.3,30.00,ESE,112,3.1,3.1,46,0.00,,SKC,0.00,VWS V14.01,2013-12-13 20:07:00,
2013-12-13 14:12:00,58.8,41.2,30.00,East,100,3.6,7.6,52,0.00,,SKC,0.00,VWS V14.01,2013-12-13 20:12:00,
2013-12-13 14:17:00,59.0,40.4,30.00,East,95,3.1,3.1,50,0.00,,SKC,0.00,VWS V14.01,2013-12-13 20:17:00,
2013-12-13 14:22:00,59.0,40.4,30.00,East,91,6.3,6.3,50,0.00,,SKC,0.00,VWS V14.01,2013-12-13 20:22:00,
2013-12-13 14:27:00,59.0,40.4,29.97,East,101,3.6,5.4,50,0.00,,SKC,0.00,VWS V14.01,2013-12-13 20:27:00,
2013-12-13 14:32:00,59.0,41.4,29.97,ENE,66,6.3,6.3,52,0.00,,SKC,0.00,VWS V14.01,2013-12-13 20:32:00,
2013-12-13 14:37:00,58.8,41.2,29.97,ENE,57,4.0,5.4,52,0.00,,SKC,0.00,VWS V14.01,2013-12-13 20:37:00,
2013-12-13 14:42:00,58.8,42.2,29.97,East,100,2.2,5.4,54,0.00,,SKC,0.00,VWS V14.01,2013-12-13 20:42:00,
2013-12-13 14:47:00,58.8,42.2,29.97,East,87,3.1,4.5,54,0.00,,SKC,0.00,VWS V14.01,2013-12-13 20:47:00,
2013-12-13 14:52:00,58.8,42.2,29.97,NE,54,3.6,5.4,54,0.00,,SKC,0.00,VWS V14.01,2013-12-13 20:52:00,
2013-12-13 14:57:00,58.8,42.2,29.97,ESE,112,6.3,6.3,54,0.00,,SKC,0.00,VWS V14.01,2013-12-13 20:57:00,
2013-12-13 15:02:00,58.5,41.9,29.97,East,89,3.1,4.9,54,0.00,,SKC,0.00,VWS V14.01,2013-12-13 21:02:00,
2013-12-13 15:07:00,58.5,42.8,29.97,East,93,4.9,5.8,56,0.00,,SKC,0.00,VWS V14.01,2013-12-13 21:07:00,
2013-12-13 15:12:00,58.6,43.0,29.97,East,79,4.9,5.4,56,0.00,,SKC,0.00,VWS V14.01,2013-12-13 21:12:00,
2013-12-13 15:17:00,58.6,42.1,29.97,ENE,66,4.0,5.8,54,0.00,,SKC,0.00,VWS V14.01,2013-12-13 21:17:00,
2013-12-13 15:22:00,58.6,42.1,29.97,ENE,64,3.6,4.9,54,0.00,,SKC,0.00,VWS V14.01,2013-12-13 21:22:00,
2013-12-13 15:27:00,58.5,41.9,29.97,East,79,4.0,4.0,54,0.00,,SKC,0.00,VWS V14.01,2013-12-13 21:27:00,
2013-12-13 15:32:00,58.5,42.8,29.97,ESE,107,7.6,7.6,56,0.00,,SKC,0.00,VWS V14.01,2013-12-13 21:32:00,
2013-12-13 15:37:00,58.5,42.8,29.97,East,92,4.0,6.3,56,0.00,,SKC,0.00,VWS V14.01,2013-12-13 21:37:00,
2013-12-13 15:42:00,58.5,42.8,29.94,NE,55,5.8,5.8,56,0.00,,SKC,0.00,VWS V14.01,2013-12-13 21:42:00,
2013-12-13 15:47:00,58.5,42.8,29.94,East,85,4.0,4.0,56,0.00,,SKC,0.00,VWS V14.01,2013-12-13 21:47:00,
2013-12-13 15:52:00,58.5,42.8,29.94,East,83,3.6,6.3,56,0.00,,SKC,0.00,VWS V14.01,2013-12-13 21:52:00,
2013-12-13 15:57:00,58.5,42.8,29.97,East,85,4.9,4.9,56,0.00,,SKC,0.00,VWS V14.01,2013-12-13 21:57:00,
2013-12-13 16:02:00,58.5,43.8,29.97,ENE,71,4.0,4.0,58,0.00,,SKC,0.00,VWS V14.01,2013-12-13 22:02:00,
2013-12-13 16:07:00,58.3,43.6,29.97,ENE,73,3.6,6.7,58,0.00,,SKC,0.00,VWS V14.01,2013-12-13 22:07:00,
2013-12-13 16:12:00,58.3,43.6,29.97,East,92,5.4,8.1,58,0.00,,SKC,0.00,VWS V14.01,2013-12-13 22:12:00,
2013-12-13 16:17:00,58.3,43.6,29.97,ENE,72,5.8,5.8,58,0.00,,SKC,0.00,VWS V14.01,2013-12-13 22:17:00,
2013-12-13 16:22:00,58.3,43.6,29.97,ENE,76,6.3,7.6,58,0.00,,SKC,0.00,VWS V14.01,2013-12-13 22:22:00,
2013-12-13 16:27:00,58.3,43.6,29.97,NE,35,4.0,6.3,58,0.00,,SKC,0.00,VWS V14.01,2013-12-13 22:27:00,
2013-12-13 16:32:00,58.3,43.6,29.97,ENE,73,2.7,2.7,58,0.00,,SKC,0.00,VWS V14.01,2013-12-13 22:32:00,
2013-12-13 16:37:00,58.3,43.6,29.97,NE,39,5.8,5.8,58,0.00,,SKC,0.00,VWS V14.01,2013-12-13 22:37:00,
2013-12-13 16:42:00,58.3,43.6,29.97,East,94,3.6,3.6,58,0.00,,SKC,0.00,VWS V14.01,2013-12-13 22:42:00,
2013-12-13 16:47:00,58.1,43.4,29.97,ENE,71,6.3,6.3,58,0.00,,SKC,0.00,VWS V14.01,2013-12-13 22:47:00,
2013-12-13 16:52:00,58.1,43.4,29.97,ENE,74,4.0,6.7,58,0.00,,SKC,0.00,VWS V14.01,2013-12-13 22:52:00,
2013-12-13 16:57:00,58.1,43.4,29.97,NNE,28,5.4,6.3,58,0.00,,SKC,0.00,VWS V14.01,2013-12-13 22:57:00,
2013-12-13 17:02:00,58.1,42.5,29.94,ENE,72,3.6,4.9,56,0.00,,SKC,0.00,VWS V14.01,2013-12-13 23:02:00,
2013-12-13 17:07:00,58.3,42.7,29.94,East,101,5.4,5.8,56,0.00,,SKC,0.00,VWS V14.01,2013-12-13 23:07:00,
2013-12-13 17:12:00,58.3,42.7,29.94,East,88,8.3,8.3,56,0.00,,SKC,0.00,VWS V14.01,2013-12-13 23:12:00,
2013-12-13 17:17:00,58.3,42.7,29.94,ENE,75,0.0,2.7,56,0.00,,SKC,0.00,VWS V14.01,2013-12-13 23:17:00,
2013-12-13 17:22:00,58.3,41.7,29.94,NE,56,5.8,6.3,54,0.00,,SKC,0.00,VWS V14.01,2013-12-13 23:22:00,
2013-12-13 17:27:00,58.5,41.9,29.94,East,88,7.6,7.6,54,0.00,,SKC,0.00,VWS V14.01,2013-12-13 23:27:00,
2013-12-13 17:32:00,58.5,41.9,29.94,NNE,31,5.4,5.4,54,0.00,,SKC,0.00,VWS V14.01,2013-12-13 23:32:00,
2013-12-13 17:37:00,58.5,41.9,29.94,East,91,5.8,5.8,54,0.00,,SKC,0.00,VWS V14.01,2013-12-13 23:37:00,
2013-12-13 17:42:00,58.6,42.1,29.94,ENE,65,3.1,5.8,54,0.00,,SKC,0.00,VWS V14.01,2013-12-13 23:42:00,
2013-12-13 17:47:00,58.6,42.1,29.94,ENE,66,4.0,4.0,54,0.00,,SKC,0.00,VWS V14.01,2013-12-13 23:47:00,
2013-12-13 17:52:00,58.5,40.9,29.94,East,79,3.1,4.0,52,0.00,,SKC,0.00,VWS V14.01,2013-12-13 23:52:00,
2013-12-13 17:57:00,58.5,41.9,29.94,ENE,63,7.6,7.6,54,0.00,,SKC,0.00,VWS V14.01,2013-12-13 23:57:00,
2013-12-13 18:02:00,58.5,40.9,29.94,ENE,72,3.1,6.3,52,0.00,,SKC,0.00,VWS V14.01,2013-12-14 00:02:00,
2013-12-13 18:07:00,58.3,40.8,29.94,ESE,110,5.4,5.4,52,0.00,,SKC,0.00,VWS V14.01,2013-12-14 00:07:00,
2013-12-13 18:12:00,58.3,41.7,29.94,East,99,5.4,5.8,54,0.00,,SKC,0.00,VWS V14.01,2013-12-14 00:12:00,
2013-12-13 18:17:00,58.1,41.6,29.91,ESE,106,5.4,5.4,54,0.00,,SKC,0.00,VWS V14.01,2013-12-14 00:17:00,
2013-12-13 18:22:00,58.1,41.6,29.91,East,98,5.4,5.8,54,0.00,,SKC,0.00,VWS V14.01,2013-12-14 00:22:00,
2013-12-13 18:26:00,57.9,41.4,29.91,NNE,29,8.1,8.3,54,0.00,,SKC,0.00,VWS V14.01,2013-12-14 00:26:00,
2013-12-13 18:31:00,57.9,41.4,29.94,ENE,73,3.6,3.6,54,0.00,,SKC,0.00,VWS V14.01,2013-12-14 00:31:00,
2013-12-13 18:36:00,57.7,41.2,29.94,East,82,8.1,8.1,54,0.00,,SKC,0.00,VWS V14.01,2013-12-14 00:36:00,
2013-12-13 18:41:00,57.7,41.2,29.94,ENE,66,2.7,2.7,54,0.00,,SKC,0.00,VWS V14.01,2013-12-14 00:41:00,
2013-12-13 18:46:00,57.6,42.0,29.94,NE,50,3.6,4.0,56,0.00,,SKC,0.00,VWS V14.01,2013-12-14 00:46:00,
2013-12-13 18:51:00,57.6,42.0,29.94,NNE,25,4.0,4.0,56,0.00,,SKC,0.00,VWS V14.01,2013-12-14 00:51:00,
2013-12-13 18:56:00,57.4,41.8,29.94,East,94,5.8,5.8,56,0.00,,SKC,0.00,VWS V14.01,2013-12-14 00:56:00,
2013-12-13 19:01:00,57.4,41.8,29.94,East,80,3.1,3.1,56,0.00,,SKC,0.00,VWS V14.01,2013-12-14 01:01:00,
2013-12-13 19:06:00,57.4,41.8,29.94,ENE,70,3.6,4.9,56,0.00,,SKC,0.00,VWS V14.01,2013-12-14 01:06:00,
2013-12-13 19:11:00,57.2,41.7,29.94,East,95,3.6,3.6,56,0.00,,SKC,0.00,VWS V14.01,2013-12-14 01:11:00,
2013-12-13 19:13:00,57.4,41.8,29.94,NE,49,3.6,5.4,56,0.00,,SKC,0.00,VWS V14.01,2013-12-14 01:13:00,
2013-12-13 19:18:00,57.4,41.8,29.94,ENE,59,4.9,5.8,56,0.00,,SKC,0.00,VWS V14.01,2013-12-14 01:18:00,
2013-12-13 19:23:00,57.4,41.8,29.94,ENE,65,2.7,3.1,56,0.00,,SKC,0.00,VWS V14.01,2013-12-14 01:23:00,